FENGYUN 1C DEB *, 46993

Orbit data source: Space-Track

FENGYUN 1C DEB *, 46993 is space debris in SSO originally from a launch on Mon, 10 May 1999 UTC launched from the Taiyaun Space Center, China (TSC). Fengyun 1C debris stems from the Chinese weather satellite Fengyun-1C, which was intentionally destroyed by a Chinese anti-satellite missile in 2007. This event dramatically increased the amount of space debris, with thousands of trackable fragments posing hazards to satellites and human spaceflight. The Fengyun 1C debris cloud has become a focal point in discussions about space sustainability and the need for international regulations to prevent the creation of new debris.

Loading next visibility...
Identifier
46993, 1999-025EZT
Orbit
SSO
Country
Flag of CNCN / PRC
Related business
Manufacturer
Unknown
Mission
Spacecraft
Bus & Motor
Unknown
Mass
Unknown
Launch date (UTC)
1999-05-10 (27 years ago)
Launch vehicle
Unknown
Launch site
Taiyaun Space Center, China (TSC)
Object type
Payload
Rocket body
Debris
Shape & HBR
Unknown shape, 0.1 m
Radar Cross Section
Small (<0.1 m²)

Expand to show TLE details & history
Last TLE update: 4 days ago

TLE from 4 days ago
0 FENGYUN 1C DEB *
1 46993U 99025EZT 25343.57840972  .00000699  00000-0  67098-3 0  9992
2 46993  98.7232 102.3256 0262449 307.8097  66.0897 13.69143946602149
Epoch: 2025-12-09T13:52Z
TLE epoch observation values (Epoch: 2025-12-09T13:52:54.599Z)
Latitude
16.47052°
Longitude
172.9506°
Altitude
930.644 km
Speed
7.425 km/s
True Right ascension
06h 38m 57s
True Declination
16° 22' 46"
Sunlit
Object was in full shadow at epoch
Visualization orbit readout
Latitude
Unknown
Longitude
Unknown
Altitude
Unknown
Speed
Unknown
Apparent Right ascension
Unknown
Apparent Declination
Unknown
Sunlit
N/A
Visualization observer readout
Local Sidereal Time
20:12:25
Azimuth
Unknown
Elevation
Unknown
Doppler factor
Unknown
Orbital elements
Apogee altitude
1,193.506 km
Perigee altitude
806.236 km
Semi-major axis
7,378.008 km
Eccentricity
0.02624
Inclination
98.7232°
RAAN
102.3256°
Arg. of periapsis
307.8097°
True anomaly
68.87498°
Mean anomaly
66.0897°
Eccentric anomaly
67.47874°
Mean motion
3.42479 °/min
Orbital period
105.12 mins
BSTAR
0.00067098
Loading maneuver chart data...
Computing Atmospheric mass density...

Documentation

Showing up to 5 results
|